Location: Laguna Heights
(37.7835°N, 122.4272°W)
Time: 21:38:03
(UTC+00:00)

Daily predictions for brighter satellites

Satellite Brightness Start Highest point End
(mag) Time Altitude Azimuth Time Altitude Azimuth Time Altitude Azimuth
BREEZE-M DEB (TANK) 4.4 12:14:16 31° N 12:15:30 35° NNE 12:26:13 10° E
USA 267 3.7 12:09:53 10° ESE 12:16:13 55° NE 12:19:07 32° NNW
Cosmos 676 Rocket 4.2 12:21:11 68° E 12:21:11 68° E 12:26:14 10° NNE
NOSS 3-3 (A) 4.1 12:21:34 57° SSE 12:22:26 65° ESE 12:28:42 10° NE
NOSS 3-3 (C) 4.1 12:21:36 56° SSE 12:22:32 64° ESE 12:28:48 10° NE
ADEOS 4.4 12:17:54 10° N 12:21:13 40° N 12:21:13 40° N
Meteor 1-31 Rocket 4.2 12:26:00 10° NNE 12:28:41 35° ENE 12:28:41 35° ENE
BREEZE-M DEB (TANK) 3.9 12:31:41 52° SSW 12:33:00 68° SE 12:36:27 10° ENE
ISS -1.8 12:42:16 29° NE 12:42:16 29° NE 12:44:02 10° NE
CZ-4B R/B 4.3 12:38:58 10° NNE 12:43:25 69° ESE 12:44:54 41° S
Cosmos 1656 Rocket 3.7 12:40:33 11° NNW 12:46:03 81° ENE 12:51:43 10° SSE
Cosmos 967 Rocket 4.4 12:45:04 43° SW 12:47:20 84° WNW 12:53:51 10° NNE
Shenzhou-11 Module 4.4 12:54:34 18° NE 12:54:34 18° NE 12:55:36 10° ENE
Atlas Centaur 2 3.6 12:53:01 31° SW 12:56:25 47° S 13:04:28 10° E
Cosmos 1140 Rocket 4.3 12:57:55 34° NW 12:57:55 34° NW 13:01:45 10° N
COSMO-SKYMED 1 4.1 12:53:52 10° SE 12:57:51 37° ENE 13:01:50 10° N
H-2A R/B 2.5 12:55:01 10° NNE 12:59:31 85° WNW 13:02:09 25° SSW
Cosmos 1400 Rocket 2.7 13:04:10 17° S 13:07:12 89° E 13:11:19 10° N
Cosmos 2369 Rocket 3.8 13:12:18 18° SSW 13:12:18 18° SSW 13:14:01 10° SSW
GPS 2-05 Rocket1 4.2 13:10:41 23° ESE 13:10:41 23° ESE 13:11:47 10° ESE
CZ-2C R/B 3.1 13:09:53 10° N 13:14:19 33° WNW 13:14:19 33° WNW
Cosmos 1954 Rocket 4.5 13:14:33 36° W 13:15:27 39° WNW 13:20:26 10° N
Cosmos 2173 Rocket 4.0 13:15:04 10° NNW 13:21:08 56° W 13:27:06 10° SSW
Cosmos 1850 Rocket 3.9 13:20:16 10° SSW 13:25:34 81° WNW 13:30:52 10° NNE
Sich 1 2.9 13:22:24 10° NNW 13:26:41 63° W 13:30:58 10° S
METEOR-M 4.1 13:21:48 10° NNE 13:27:10 85° ESE 13:32:30 10° SSW
ERBS 2.3 13:27:57 25° SW 13:29:45 79° SE 13:33:07 10° NE
SL-8 R/B 3.6 13:28:50 25° WSW 13:31:40 80° NNW 13:36:30 10° NE
Cosmos 1484 Rocket 3.1 13:29:45 10° N 13:33:33 43° WNW 13:37:21 10° SW
CZ-4B R/B 3.3 13:31:13 10° N 13:34:26 31° WNW 13:35:01 29° W
Cosmos 1151 Rocket 3.0 13:34:23 10° S 13:38:41 88° W 13:43:04 10° N
Meteor PRIRODA 4.1 13:36:18 10° N 13:39:43 37° WNW 13:43:06 10° SW
CZ-4B R/B 4.1 13:34:39 10° NNE 13:39:49 51° E 13:44:56 10° S
Cosmos 1805 Rocket 4.2 13:36:06 10° NNW 13:39:55 30° W 13:43:43 10° SSW
ALOS 2.2 13:35:44 10° N 13:40:21 63° WNW 13:44:57 10° SSW
Cosmos 1470 Rocket 4.5 13:36:28 10° N 13:40:52 53° E 13:45:14 10° SSE
Cosmos 1459 Rocket 4.4 13:36:18 10° NNW 13:41:58 38° W 13:47:42 10° SSW
CZ-4B DEB 4.2 13:36:58 10° NNE 13:42:28 89° ESE 13:47:55 10° SSW
STARLINK-1159 4.4 13:39:33 11° NNW 13:42:32 36° NE 13:45:44 10° ESE
DELTA 2 R/B (1) 3.6 13:39:18 20° W 13:43:11 74° N 13:48:45 10° E
STARLINK-1171 4.4 13:42:10 11° NNW 13:45:19 39° NE 13:48:34 10° ESE
SKYMED 2 3.5 13:41:32 10° S 13:45:48 60° W 13:50:06 10° NNW
MOS 1-B 4.3 13:41:46 10° N 13:47:36 78° WNW 13:53:24 10° SSW
Cosmos 1606 2.7 13:43:59 10° S 13:47:45 82° E 13:51:33 10° N
STARLINK-1155 4.2 13:44:58 10° NW 13:48:10 41° NE 13:51:26 10° ESE
Cosmos 1238 Rocket 3.8 13:44:00 10° NNW 13:48:44 35° W 13:52:44 10° SSW
Cosmos 468 Rocket 4.0 13:43:39 10° NNW 13:48:58 86° WSW 13:54:11 10° SSE
STARLINK-1149 3.2 13:48:17 14° NW 13:50:37 56° NE 13:53:25 10° ESE
STARLINK-1166 4.1 13:48:15 10° NW 13:51:33 44° NE 13:54:50 10° ESE
Cosmos 220 Rocket 4.0 13:48:28 10° NNW 13:52:42 81° ENE 13:56:54 10° SSE
USA 116 3.1 13:50:26 10° SSE 13:53:31 82° ENE 13:56:39 10° N
Cosmos 1862 4.1 13:50:36 10° NNW 13:54:04 29° W 13:57:32 10° SSW
STARLINK-1165 4.0 13:51:15 10° NW 13:54:34 47° NE 13:57:53 10° ESE
Cosmos 1741 Rocket 4.3 13:50:03 10° SW 13:55:02 45° WNW 14:00:06 10° N
OAO 2 Rocket 4.5 13:51:22 10° SW 13:56:15 40° SSE 14:01:12 10° E
STARLINK-1169 3.9 13:54:05 10° NW 13:57:26 50° NE 14:00:46 10° ESE
USA 267 3.8 13:53:15 10° SSE 13:59:18 40° SW 14:05:22 10° WNW
STARLINK-1178 3.8 13:56:47 10° NW 14:00:09 54° NE 14:03:31 10° ESE
COSMOS 2406 3.7 13:55:38 10° S 14:01:13 67° ESE 14:06:51 10° NNE
Cosmos 1346 Rocket 2.6 13:58:42 10° NNW 14:02:36 79° W 14:06:28 10° S
STARLINK-1120 3.7 13:59:27 10° NW 14:02:50 57° NE 14:06:13 10° ESE
Cosmos 1328 Rocket 3.9 13:59:12 10° SSW 14:03:26 44° W 14:07:41 10° N
ADEOS Rocket 3.5 13:58:46 10° SSE 14:05:08 78° ENE 14:12:17 10° N
STARLINK-1131 3.5 14:02:28 10° NW 14:05:52 62° NE 14:09:16 10° ESE
Meteor 2-20 4.4 14:00:30 10° SSW 14:06:28 61° W 14:12:30 10° N
Cosmos 1725 Rocket 4.3 14:01:19 10° NNW 14:07:13 44° W 14:13:08 10° SSW
STARLINK-1190 3.5 14:04:29 10° NW 14:07:56 66° NE 14:11:23 10° ESE
COSMOS 2455 4.0 14:02:28 10° NNW 14:08:15 46° ENE 14:14:00 10° SE
Cosmos 1833 Rocket 4.3 14:03:14 10° S 14:08:27 41° ESE 14:13:42 10° NE
NOSS 3-4 (A) 4.5 14:01:43 10° NNW 14:08:46 61° NE 14:16:28 10° SE
Cosmos 841 Rocket 4.0 14:05:14 10° NNW 14:10:28 65° ENE 14:15:41 10° SSE
Iridium 51 4.5 14:07:08 10° SSW 14:10:41 41° W 14:14:05 10° NNW
Cosmos 1763 Rocket 3.5 14:07:51 10° NNW 14:13:07 63° WSW 14:18:18 10° S
STARLINK-1132 2.7 14:11:39 10° NW 14:14:33 71° SW 14:17:27 10° SE
STARLINK-1150 2.6 14:11:54 10° NW 14:14:48 70° SW 14:17:42 10° SE
STARLINK-1163 2.7 14:12:08 10° NW 14:15:02 70° SW 14:17:57 10° SE
STARLINK-1177 2.7 14:12:24 10° NW 14:15:19 70° SW 14:18:12 10° SE
STARLINK-1167 2.7 14:12:32 10° NW 14:15:28 69° SW 14:18:23 10° SE
STARLINK-1173 2.7 14:13:01 10° NW 14:15:55 68° SW 14:18:48 10° SE
SMAP 3.9 14:11:28 10° NNE 14:16:04 57° E 14:20:38 10° S
STARLINK-1153 2.6 14:13:28 10° NW 14:16:24 81° SW 14:19:19 10° SE
STARLINK-1180 2.6 14:13:41 10° NW 14:16:38 80° SW 14:19:33 10° SE
Cosmos 1818 3.7 14:11:27 10° SW 14:16:47 57° WNW 14:22:10 10° NNE
STARLINK-1174 2.6 14:14:09 10° NW 14:17:05 79° SW 14:19:59 10° SE
STARLINK-1179 2.7 14:14:27 10° NW 14:17:16 59° SW 14:20:05 10° SE
STARLINK-1139 2.6 14:14:23 10° NW 14:17:18 79° SW 14:20:12 10° SE
STARLINK-1133 2.6 14:14:37 10° NW 14:17:32 78° SW 14:20:27 10° SE
STARLINK-1176 2.7 14:14:50 10° NW 14:17:39 58° SW 14:20:27 10° SE
STARLINK-1151 2.6 14:14:50 10° NW 14:17:45 78° SW 14:20:39 10° SE
ISS -1.8 14:15:36 10° WNW 14:17:50 16° NNW 14:20:04 10° NNE
STARLINK-1160 2.6 14:15:30 10° NW 14:18:26 76° SW 14:21:20 10° SE
STARLINK-1136 2.7 14:15:37 10° NW 14:18:29 62° SW 14:21:19 10° SE
STARLINK-1161 2.6 14:15:44 10° NW 14:18:38 75° SW 14:21:34 10° SE
STARLINK-1145 2.6 14:15:57 10° NW 14:18:53 75° SW 14:21:47 10° SE
STARLINK-1172 2.6 14:16:09 10° NW 14:19:05 74° SW 14:21:59 10° SE
STARLINK-1182 2.7 14:16:38 10° NW 14:19:33 73° SW 14:22:27 10° SE
STARLINK-1164 2.6 14:16:52 10° NW 14:19:46 73° SW 14:22:41 10° SE
STARLINK-1168 2.7 14:17:05 10° NW 14:20:01 72° SW 14:22:54 10° SE
Meteor 1-26 Rocket 4.3 14:14:42 10° S 14:20:27 85° W 14:26:23 10° N
STARLINK-1183 2.7 14:17:45 10° NW 14:20:40 71° SW 14:23:34 10° SE
STARLINK-1181 2.7 14:17:59 10° NW 14:20:54 70° SW 14:23:48 10° SE
Cosmos 1570 Rocket 4.0 14:15:42 10° NNW 14:21:03 76° WSW 14:26:23 10° S
STARLINK-1196 2.7 14:18:39 10° NW 14:21:34 69° SW 14:24:29 10° SE
STARLINK-1186 2.7 14:19:07 10° NW 14:22:01 68° SW 14:24:55 10° SE
STARLINK-1185 2.7 14:19:19 10° NW 14:22:14 67° SW 14:25:07 10° SE
STARLINK-1175 2.7 14:19:33 10° NW 14:22:28 67° SW 14:25:21 10° SE
STARLINK-1147 2.7 14:19:47 10° NW 14:22:42 66° SW 14:25:35 10° SE
STARLINK-1146 2.7 14:20:00 10° NW 14:22:54 66° SW 14:25:49 10° SE
STARLINK-1152 2.7 14:20:14 10° NW 14:23:08 66° SW 14:26:02 10° SE
H-2A R/B 2.6 14:19:37 10° N 14:23:21 87° WNW 14:27:02 10° SSW
STARLINK-1195 2.7 14:20:27 10° NW 14:23:22 65° SW 14:26:15 10° SE
STARLINK-1137 2.7 14:20:41 10° NW 14:23:35 65° SW 14:26:29 10° SE
Cosmos 1782 3.1 14:19:46 10° S 14:23:47 76° E 14:27:49 10° N
STARLINK-1142 2.7 14:20:55 10° NW 14:23:49 64° SW 14:26:42 10° SE
STARLINK-1127 2.7 14:21:08 10° NW 14:24:02 64° SW 14:26:55 10° SE
STARLINK-1184 2.7 14:21:21 10° NW 14:24:15 63° SW 14:27:08 10° SE
OAO 3 Rocket 3.8 14:19:43 10° WSW 14:24:28 54° S 14:29:18 10° E
STARLINK-1193 2.7 14:21:35 10° NW 14:24:29 63° SW 14:27:22 10° SE
STARLINK-1194 2.8 14:21:49 10° NW 14:24:43 62° SW 14:27:35 10° SE
